Montpelier, VT

3:04 AM EST on December 08, 2019 (GMT -0500)
Knapp State

Weather History for KMPV - July, 2019

Change the Weather History Date:

Thursday, July 11, 2019

  Actual Average Record
Temperature  
Mean Temperature 70 °F 67 °F  
Max Temperature 81 °F 79 °F 89 °F (1948)
Min Temperature 58 °F 56 °F 44 °F (1953)
Degree Days  
Heating Degree Days 0 1  
Month to date heating degree days 6 17  
Since 1 June heating degree days 150 138  
Since 1 July heating degree days 6 17  
Cooling Degree Days 5 4  
Month to date cooling degree days 42 34  
Year to date cooling degree days 62 97  
Since 1 June cooling degree days 61 87  
Growing Degree Days 18 (Base 50)    
Moisture  
Dew Point 65 °F    
Average Humidity 84    
Maximum Humidity 100    
Minimum Humidity 67    
Precipitation  
Precipitation 0.22 in 0.13 in 1.36 in (2007)
Month to date precipitation 0.97 1.33  
Year to date precipitation 25.90 18.04  
Sea Level Pressure  
Sea Level Pressure 29.90 in    
Wind  
Wind Speed 7 mph (South)    
Max Wind Speed 20 mph    
Max Gust Speed 27 mph    
Visibility 10 miles    
Events Rain , Thunderstorm    
T = Trace of Precipitation, MM = Missing Value Source: NWS Daily Summary

Daily Weather History Graph

Daily Weather History Graph

Search for Another Location

Airport or City:

Astronomy

Jul. 11, 2019 Rise Set
Actual Time 5:17 AM EDT 8:33 PM EDT
Civil Twilight 4:41 AM EDT 9:09 PM EDT
Nautical Twilight 3:55 AM EDT 9:55 PM EDT
Astronomical Twilight 2:58 AM EDT 10:52 PM EDT
Moon 3:38 PM EDT (7/11) 1:33 AM EDT (7/11)
Length of Visible Light 16h 27m
Length of Day
15h 16m
Waxing Gibbous, 74% of the Moon is Illuminated
Jul 11
Waxing Gibbous
Jul 16
Full
Jul 24
Last Quarter
Jul 31
New
Aug 7
First Quarter

Hourly Weather History & Observations

Time (EDT) Temp. Dew Point Humidity Pressure Visibility Wind Dir Wind Speed Gust Speed Precip Events Conditions
12:51 AM 62.1 °F 60.1 °F 93% 30.02 in 10.0 mi Calm Calm - N/A   Clear
1:51 AM 62.1 °F 60.1 °F 93% 30.01 in 10.0 mi Calm Calm - N/A   Clear
2:51 AM 61.0 °F 60.1 °F 97% 30.01 in 10.0 mi Calm Calm - N/A   Clear
3:51 AM 60.1 °F 59.0 °F 96% 30.00 in 10.0 mi Calm Calm - N/A   Clear
4:51 AM 59.0 °F 57.9 °F 96% 30.00 in 9.0 mi Calm Calm - N/A   Clear
5:51 AM 57.9 °F 57.0 °F 97% 30.01 in 8.0 mi Calm Calm - N/A   Clear
6:13 AM 60.1 °F 59.0 °F 96% 30.02 in 8.0 mi Calm Calm - N/A   Partly Cloudy
6:51 AM 62.1 °F 60.1 °F 93% 30.01 in 10.0 mi Calm Calm - N/A   Clear
7:51 AM 66.0 °F 63.0 °F 90% 30.00 in 10.0 mi North 3.5 mph - N/A   Clear
8:51 AM 72.0 °F 62.1 °F 71% 29.99 in 10.0 mi SSE 9.2 mph - N/A   Clear
9:51 AM 73.0 °F 63.0 °F 71% 29.97 in 10.0 mi South 15.0 mph - N/A   Clear
10:51 AM 75.0 °F 64.0 °F 69% 29.95 in 10.0 mi South 13.8 mph - N/A   Clear
11:51 AM 78.1 °F 66.0 °F 66% 29.94 in 10.0 mi SSE 11.5 mph - N/A   Clear
12:51 PM 79.0 °F 66.9 °F 66% 29.92 in 10.0 mi South 11.5 mph - N/A   Clear
2:24 PM 79.0 °F 66.0 °F 64% 29.92 in 10.0 mi South 12.7 mph - N/A Thunderstorm Scattered Clouds
2:39 PM 77.0 °F 66.0 °F 69% 29.92 in 10.0 mi SSW 13.8 mph 20.7 mph N/A   Mostly Cloudy
2:48 PM 71.6 °F 66.2 °F 83% 29.92 in 8.0 mi SW 12.7 mph 27.6 mph 0.00 in Rain Light Rain
2:51 PM 71.1 °F 66.9 °F 87% 29.91 in 6.0 mi SW 10.4 mph 24.2 mph 0.01 in Rain , Thunderstorm Light Rain
3:12 PM 70.0 °F 64.0 °F 81% 29.90 in 6.0 mi SSW 12.7 mph - 0.03 in Rain Light Rain
3:51 PM 71.1 °F 66.9 °F 87% 29.88 in 10.0 mi South 10.4 mph - 0.04 in   Mostly Cloudy
4:51 PM 73.0 °F 70.0 °F 90% 29.86 in 10.0 mi South 10.4 mph - 0.00 in   Partly Cloudy
5:51 PM 73.0 °F 69.1 °F 87% 29.86 in 10.0 mi South 5.8 mph - N/A   Mostly Cloudy
6:51 PM 72.0 °F 69.1 °F 91% 29.85 in 10.0 mi South 6.9 mph - 0.00 in Rain Light Rain
7:51 PM 71.1 °F 70.0 °F 96% 29.83 in 10.0 mi South 6.9 mph - 0.02 in   Mostly Cloudy
8:43 PM 72.0 °F 69.1 °F 91% 29.84 in 10.0 mi SSE 8.1 mph - N/A   Mostly Cloudy
8:51 PM 71.1 °F 70.0 °F 96% 29.83 in 10.0 mi SSE 8.1 mph - N/A   Mostly Cloudy
8:59 PM 71.1 °F 69.1 °F 93% 29.84 in 10.0 mi South 9.2 mph - N/A   Mostly Cloudy
9:42 PM 71.1 °F 69.1 °F 93% 29.84 in 10.0 mi South 5.8 mph - 0.00 in   Overcast
9:51 PM 71.1 °F 69.1 °F 93% 29.83 in 10.0 mi Calm Calm - 0.00 in   Overcast
10:02 PM 71.1 °F 69.1 °F 93% 29.84 in 10.0 mi South 5.8 mph - 0.00 in Rain Light Rain
10:13 PM 71.1 °F 69.1 °F 93% 29.84 in 10.0 mi South 5.8 mph - 0.00 in Rain Light Rain
10:25 PM 71.1 °F 69.1 °F 93% 29.84 in 10.0 mi South 6.9 mph - 0.00 in Rain Light Rain
10:49 PM 69.8 °F 68.0 °F 94% 29.82 in 10.0 mi SSE 9.2 mph - 0.00 in Rain Light Rain
10:51 PM 70.0 °F 68.0 °F 93% 29.81 in 10.0 mi SSE 10.4 mph - 0.00 in Rain Light Rain
11:20 PM 69.1 °F 66.9 °F 93% 29.81 in 10.0 mi SSE 11.5 mph - 0.00 in   Mostly Cloudy
11:51 PM 68.0 °F 66.0 °F 93% 29.78 in 10.0 mi South 13.8 mph - 0.00 in   Overcast
11:58 PM 68.0 °F 66.0 °F 93% 29.82 in 9.0 mi WSW 10.4 mph 17.3 mph 0.00 in Rain , Thunderstorm Light Rain